Location: Cruquius
(52.3348°N, 4.6319°E)
Time: 13:35:00
(UTC+00:00)

Cosmos 1743 - Pass Details

Date: 12 May 2021
Orbit: 510 x 525 km, 82.6° (Epoch: 19 June)

Event Time Altitude Azimuth Distance (km) Brightness Sun altitude
Rises 22:27:46 0° 342° (NNW) 2,655 8.1 -17.7°
Reaches altitude 10° 22:30:00 10° 334° (NNW) 1,764 6.7 -17.8°
Maximum altitude 22:33:34 36° 268° (W) 839 3.8 -17.9°
Enters shadow 22:35:06 25° 222° (SW) 1,071 4.0 -18.0°
